This demonstration page uses our WeatherBlox Daily Observations layout. Learn more.

Left ArrowRight Arrow

47.50024, -111.30081

Hourly Observations for January 24, 2020

Temp ( °F °C ) Dew Point ( °F °C ) Humidity (%) Winds ( mph kmh ) Pressure ( in mb ) Visibility ( mi km ) Precip ( " mm )
12:53 am 00:53 Clear 44 6.7 30 -1.1 58 58 SW 20 31 29.91 1013 10 16 0.00 0.00
1:53 am 01:53 Clear 43 6.1 30 -1.1 60 60 SW 16 26 29.90 1013 10 16 0.00 0.00
2:53 am 02:53 Clear 43 6.1 29 -1.7 58 58 SW 17 28 29.90 1013 10 16 0.00 0.00
3:53 am 03:53 Clear 41 5 29 -1.7 62 62 SW 15 24 29.91 1013 10 16 0.00 0.00
4:53 am 04:53 Clear 41 5 28 -2.2 60 60 SW 17 28 29.91 1013 10 16 0.00 0.00
5:53 am 05:53 Clear 40 4.4 28 -2.2 63 63 SW 13 20 29.91 1013 10 16 0.00 0.00
6:53 am 06:53 Cloudy 44 6.7 28 -2.2 53 53 SW 17 28 29.88 1012 10 16 0.00 0.00
7:53 am 07:53 Clear 37 2.8 26 -3.3 65 65 SSW 9 15 29.91 1013 10 16 0.00 0.00
8:53 am 08:53 Sunny 41 5 27 -2.8 57 57 SSW 16 26 29.91 1013 10 16 0.00 0.00
9:53 am 09:53 Mostly Sunny 45 7.2 27 -2.8 49 49 SW 20 31 29.88 1012 10 16 0.00 0.00
10:53 am 10:53 Sunny 49 9.4 26 -3.3 41 41 SW 21 33 29.87 1011 10 16 0.00 0.00
11:53 am 11:53 Sunny 51 10.6 26 -3.3 38 38 SW 25 41 29.84 1011 10 16 0.00 0.00
12:53 pm 12:53 Sunny 52 11.1 26 -3.3 37 37 SW 23 37 29.82 1010 10 16 0.00 0.00
1:53 pm 13:53 Mostly Cloudy 51 10.6 25 -3.9 36 36 SW 28 44 29.80 1009 10 16 0.00 0.00
2:53 pm 14:53 Cloudy 49 9.4 26 -3.3 41 41 SW 25 41 29.81 1010 10 16 0.00 0.00
3:53 pm 15:53 Cloudy 47 8.3 28 -2.2 48 48 SW 24 39 29.83 1010 10 16 0.00 0.00
4:53 pm 16:53 Cloudy 45 7.2 29 -1.7 54 54 SW 21 33 29.85 1011 10 16 0.00 0.00
5:53 pm 17:53 Mostly Clear 43 6.1 28 -2.2 56 56 SW 21 33 29.86 1011 10 16 0.00 0.00
6:53 pm 18:53 Clear 41 5 27 -2.8 57 57 SW 15 24 29.88 1012 10 16 0.00 0.00
7:53 pm 19:53 Clear 40 4.4 26 -3.3 58 58 SW 20 31 29.91 1013 10 16 0.00 0.00
8:53 pm 20:53 Clear 39 3.9 25 -3.9 57 57 SW 20 31 29.91 1013 10 16 0.00 0.00
9:53 pm 21:53 Clear 38 3.3 24 -4.4 57 57 SW 20 31 29.92 1013 10 16 0.00 0.00
10:53 pm 22:53 Clear 38 3.3 22 -5.6 52 52 SSW 18 30 29.91 1013 10 16 0.00 0.00
11:53 pm 23:53 Clear 37 2.8 22 -5.6 54 54 SW 23 37 29.90 1013 10 16 0.00 0.00

Powered by AerisWeather